Weather History for Slayton, MN

Change the Weather History Date:

Sunday, May 5, 2013

  Actual Average (KOTG) Record (KOTG)
Temperature  
Mean Temperature 42 °F -  
Max Temperature 49 °F 62 °F 89 °F (2004)
Min Temperature 36 °F 42 °F 29 °F (1992)
Degree Days  
Heating Degree Days 22    
Moisture  
Dew Point 40 °F    
Average Humidity 93    
Maximum Humidity 100    
Minimum Humidity 81    
Precipitation  
Precipitation 0.00 in - - ()
Sea Level Pressure  
Sea Level Pressure 30.17 in    
Wind  
Wind Speed 8 mph (NNW)    
Max Wind Speed 12 mph    
Max Gust Speed -    
Visibility 6 miles    
Events Fog , Rain , Snow    
Averages and records for this station are not official NWS values.
T = Trace of Precipitation, MM = Missing Value Source: NWS Daily Summary

Daily Weather History Graph

Daily Weather History Graph

Search for Another Location

Airport:

Trip Planner

Search our weather history database for the weather conditions in past years. The results will help you decide how hot, cold, wet, or windy it might be!

Date:

Astronomy

May. 05, 2013 Rise Set
Actual Time 6:08 AM CDT 8:31 PM CDT
Civil Twilight 5:36 AM CDT 9:03 PM CDT
Nautical Twilight 4:56 AM CDT 9:43 PM CDT
Astronomical Twilight 4:12 AM CDT 10:29 PM CDT
Moon 3:48 AM CDT (5/5) 4:24 PM CDT (5/5)
Length of Visible Light 15h 27m
Length of Day
14h 22m
Waning Crescent, 18% of the Moon is Illuminated
May 5
Waning Crescent
May 9
New
May 17
First Quarter
May 24
Full
May 31
Last Quarter

Hourly Weather History & Observations

Time (CDT) Temp. Windchill Dew Point Humidity Pressure Visibility Wind Dir Wind Speed Gust Speed Precip Events Conditions
12:13 AM 36.7 °F 31.2 °F 36.9 °F 100% 30.19 in 0.8 mi NNE 6.9 mph - N/A   Overcast
12:34 AM 36.7 °F 29.9 °F 36.9 °F 100% 30.19 in 0.5 mi North 9.2 mph - N/A Rain Light Rain
12:53 AM 36.7 °F 29.9 °F 36.9 °F 100% 30.19 in 0.5 mi North 9.2 mph - N/A Snow Light Snow
1:13 AM 36.7 °F 30.5 °F 36.9 °F 100% 30.18 in 0.5 mi North 8.1 mph - N/A Rain Light Rain
1:32 AM 36.7 °F 30.5 °F 36.9 °F 100% 30.18 in 0.8 mi North 8.1 mph - N/A Rain Rain
1:54 AM 36.7 °F 29.9 °F 36.9 °F 100% 30.17 in 0.2 mi North 9.2 mph - N/A Snow Light Snow
2:13 AM 36.7 °F 29.9 °F 36.9 °F 100% 30.17 in 0.5 mi North 9.2 mph - N/A Snow Light Snow
2:34 AM 36.7 °F 31.2 °F 36.9 °F 100% 30.17 in 0.5 mi North 6.9 mph - N/A Fog Fog
2:54 AM 36.9 °F 30.7 °F 37.0 °F 100% 30.17 in 0.5 mi North 8.1 mph - N/A Fog Fog
3:14 AM 36.9 °F 31.4 °F 37.0 °F 100% 30.17 in 0.5 mi North 6.9 mph - N/A Fog Fog
3:34 AM 36.9 °F 31.4 °F 37.0 °F 100% 30.17 in 0.5 mi NNW 6.9 mph - N/A Fog Fog
3:53 AM 36.7 °F 30.5 °F 36.9 °F 100% 30.17 in 0.5 mi NNW 8.1 mph - N/A Fog Fog
4:13 AM 36.7 °F 30.5 °F 36.9 °F 100% 30.17 in 0.2 mi NNW 8.1 mph - N/A Fog Fog
4:33 AM 36.7 °F 29.9 °F 36.9 °F 100% 30.17 in 0.5 mi NNW 9.2 mph - N/A Fog Fog
4:53 AM 36.7 °F 30.5 °F 36.9 °F 100% 30.17 in 0.5 mi NNW 8.1 mph - N/A Fog Fog
5:13 AM 36.7 °F 30.5 °F 36.9 °F 100% 30.17 in 0.5 mi NNW 8.1 mph - N/A Fog Fog
5:34 AM 36.7 °F 29.4 °F 36.9 °F 100% 30.17 in 0.5 mi North 10.4 mph - N/A Fog Fog
5:53 AM 36.7 °F 29.4 °F 36.9 °F 100% 30.17 in 0.5 mi North 10.4 mph - N/A Fog Fog
6:13 AM 36.7 °F 29.4 °F 36.9 °F 100% 30.17 in 0.8 mi North 10.4 mph - N/A   Overcast
6:33 AM 36.7 °F 31.2 °F 36.9 °F 100% 30.18 in 0.5 mi NNW 6.9 mph - N/A Fog Fog
6:54 AM 36.7 °F 29.9 °F 36.9 °F 100% 30.18 in 0.5 mi North 9.2 mph - N/A Rain Light Rain
7:13 AM 36.9 °F 30.7 °F 37.0 °F 100% 30.18 in 1.2 mi NNW 8.1 mph - N/A Rain Light Rain
7:32 AM 37.0 °F 30.4 °F 37.4 °F 100% 30.19 in 5.0 mi North 9.2 mph - N/A   Light Drizzle
7:54 AM 37.4 °F 30.8 °F 37.4 °F 100% 30.19 in 5.0 mi NNW 9.2 mph - N/A   Overcast
8:13 AM 37.6 °F 31.0 °F 37.8 °F 100% 30.19 in 7.0 mi NNW 9.2 mph - N/A   Overcast
8:32 AM 37.8 °F 30.7 °F 37.9 °F 100% 30.19 in 7.0 mi NNW 10.4 mph - N/A   Overcast
8:54 AM 38.3 °F 31.4 °F 38.3 °F 100% 30.19 in 4.0 mi NNW 10.4 mph - N/A   Overcast
9:13 AM 38.7 °F 31.4 °F 38.8 °F 100% 30.19 in 5.0 mi NNW 11.5 mph - N/A   Overcast
9:34 AM 39.2 °F 32.5 °F 39.2 °F 100% 30.19 in 7.0 mi North 10.4 mph - N/A   Overcast
9:53 AM 39.6 °F 32.5 °F 39.7 °F 100% 30.19 in 10.0 mi North 11.5 mph - N/A   Overcast
10:14 AM 40.1 °F 34.1 °F 40.3 °F 100% 30.19 in 10.0 mi NNW 9.2 mph - N/A   Overcast
10:33 AM 40.5 °F 34.1 °F 40.1 °F 99% 30.19 in 10.0 mi North 10.4 mph - N/A   Overcast
10:57 AM 41.2 °F 35.0 °F 40.3 °F 97% 30.19 in 10.0 mi NNW 10.4 mph - N/A   Overcast
11:14 AM 41.5 °F 35.4 °F 40.3 °F 95% 30.19 in 10.0 mi North 10.4 mph - N/A   Overcast
11:33 AM 41.9 °F 36.9 °F 40.5 °F 95% 30.19 in 10.0 mi NNW 8.1 mph - N/A   Overcast
11:52 AM 42.3 °F 37.3 °F 40.3 °F 93% 30.19 in 10.0 mi NNW 8.1 mph - N/A   Overcast
12:14 PM 42.8 °F 37.5 °F 40.6 °F 92% 30.19 in 10.0 mi NNW 9.2 mph - N/A   Overcast
12:33 PM 43.2 °F 37.9 °F 41.0 °F 92% 30.19 in 10.0 mi NW 9.2 mph - N/A   Overcast
12:53 PM 44.1 °F 39.5 °F 41.5 °F 91% 30.18 in 10.0 mi North 8.1 mph - N/A   Overcast
1:13 PM 44.2 °F 39.7 °F 41.5 °F 90% 30.19 in 10.0 mi North 8.1 mph - N/A   Overcast
1:34 PM 44.6 °F 40.2 °F 41.9 °F 90% 30.18 in 10.0 mi North 8.1 mph - N/A   Overcast
1:53 PM 45.3 °F 40.6 °F 42.3 °F 89% 30.17 in 10.0 mi NNW 9.2 mph - N/A   Overcast
2:13 PM 46.6 °F - 43.0 °F 87% 30.17 in 10.0 mi NNW 9.2 mph - N/A   Overcast
2:34 PM 46.4 °F 41.9 °F 42.6 °F 87% 30.17 in 10.0 mi NNW 9.2 mph - N/A   Overcast
2:53 PM 46.9 °F - 43.0 °F 86% 30.17 in 10.0 mi North 9.2 mph - N/A   Overcast
3:33 PM 47.1 °F - 43.0 °F 86% 30.16 in 10.0 mi NW 10.4 mph - N/A   Overcast
3:54 PM 47.3 °F - 43.3 °F 86% 30.16 in 10.0 mi NW 9.2 mph - N/A   Overcast
4:13 PM 48.2 °F - 43.7 °F 84% 30.15 in 10.0 mi NNW 9.2 mph - N/A   Overcast
4:34 PM 48.9 °F - 43.9 °F 83% 30.14 in 10.0 mi NNW 9.2 mph - N/A   Overcast
4:53 PM 48.6 °F - 43.9 °F 84% 30.14 in 10.0 mi North 8.1 mph - N/A   Overcast
5:14 PM 48.9 °F - 44.1 °F 83% 30.14 in 10.0 mi North 9.2 mph - N/A   Overcast
5:32 PM 49.1 °F - 43.9 °F 82% 30.14 in 10.0 mi North 6.9 mph - N/A   Overcast
5:53 PM 49.3 °F - 44.1 °F 82% 30.14 in 10.0 mi North 8.1 mph - N/A   Overcast
6:14 PM 49.5 °F - 43.9 °F 81% 30.14 in 10.0 mi NNW 8.1 mph - N/A   Overcast
6:33 PM 49.3 °F - 43.7 °F 81% 30.14 in 10.0 mi NNW 6.9 mph - N/A   Overcast
6:53 PM 49.1 °F - 43.7 °F 82% 30.14 in 10.0 mi North 6.9 mph - N/A   Overcast
7:13 PM 49.1 °F - 43.7 °F 82% 30.13 in 7.0 mi North 8.1 mph - N/A   Overcast
7:34 PM 48.7 °F - 43.7 °F 83% 30.14 in 7.0 mi North 8.1 mph - N/A   Overcast
7:53 PM 48.2 °F - 43.0 °F 82% 30.14 in 7.0 mi North 6.9 mph - N/A   Overcast
8:13 PM 47.8 °F - 43.2 °F 84% 30.13 in 7.0 mi North 5.8 mph - N/A   Mostly Cloudy
8:33 PM 46.8 °F - 43.0 °F 87% 30.14 in 10.0 mi North 5.8 mph - N/A   Overcast
8:52 PM 45.7 °F 43.4 °F 42.8 °F 90% 30.14 in 7.0 mi North 4.6 mph - N/A   Overcast
9:13 PM 45.7 °F 43.4 °F 42.8 °F 90% 30.14 in 10.0 mi North 4.6 mph - N/A   Overcast
9:54 PM 45.5 °F - 42.8 °F 90% 30.15 in 10.0 mi Calm Calm - N/A   Overcast
10:14 PM 45.1 °F 43.7 °F 42.4 °F 90% 30.15 in 10.0 mi NW 3.5 mph - N/A   Overcast
10:33 PM 45.1 °F 42.0 °F 42.4 °F 90% 30.15 in 10.0 mi NW 5.8 mph - N/A   Overcast
10:54 PM 45.0 °F 42.6 °F 42.3 °F 90% 30.15 in 10.0 mi NNW 4.6 mph - N/A   Overcast
11:12 PM 44.6 °F 43.1 °F 42.3 °F 91% 30.14 in 7.0 mi NNW 3.5 mph - N/A   Overcast
11:34 PM 44.6 °F 42.2 °F 42.1 °F 91% 30.14 in 5.0 mi NNW 4.6 mph - N/A   Overcast
11:53 PM 44.2 °F 41.8 °F 41.9 °F 91% 30.15 in 5.0 mi NNW 4.6 mph - N/A   Overcast